| time (UTC) | temp C | wind direction | speed KPH | gust KPH | rain 1hr cm | rain 24hr cm | rain mn cm | humidity % | barometer mb |
| 20260906140030 | 37 | 94 | 8.0 | 22.5 | 0.00 | 0.00 | 0.00 | 15 | 1010.4 |
| 20260906134510 | 37 | 150 | 9.7 | 25.7 | 0.00 | 0.00 | 0.00 | 14 | 1010.5 |
| 20260906133016 | 38 | 157 | 11.3 | 20.9 | 0.00 | 0.00 | 0.00 | 14 | 1010.5 |
| 20260906131523 | 38 | 206 | 4.8 | 17.7 | 0.00 | 0.00 | 0.00 | 14 | 1010.5 |
| 20260906130027 | 38 | 140 | 6.4 | 17.7 | 0.00 | 0.00 | 0.00 | 14 | 1010.6 |
| 20260906124530 | 37 | 58 | 4.8 | 14.5 | 0.00 | 0.00 | 0.00 | 14 | 1010.7 |
| 20260906123016 | 37 | 108 | 8.0 | 14.5 | 0.00 | 0.00 | 0.00 | 14 | 1010.7 |
| 20260906121516 | 38 | 360 | 9.7 | 14.5 | 0.00 | 0.00 | 0.00 | 14 | 1010.9 |
| 20260906120023 | 37 | 150 | 6.4 | 14.5 | 0.00 | 0.00 | 0.00 | 14 | 1010.8 |
| 20260906114541 | 37 | 39 | 12.9 | 19.3 | 0.00 | 0.00 | 0.00 | 14 | 1010.9 |
| 20260906113031 | 37 | 122 | 12.9 | 22.5 | 0.00 | 0.00 | 0.00 | 15 | 1011.1 |
| 20260906111523 | 37 | 150 | 4.8 | 19.3 | 0.00 | 0.00 | 0.00 | 14 | 1011.2 |
| 20260906110018 | 37 | 129 | 8.0 | 19.3 | 0.00 | 0.00 | 0.00 | 14 | 1011.4 |
| 20260906104528 | 37 | 201 | 3.2 | 24.1 | 0.00 | 0.00 | 0.00 | 14 | 1011.5 |
| 20260906103033 | 37 | 108 | 3.2 | 16.1 | 0.00 | 0.00 | 0.00 | 14 | 1011.7 |
| 20260906101531 | 37 | 185 | 1.6 | 9.7 | 0.00 | 0.00 | 0.00 | 15 | 1011.9 |
| 20260906100018 | 37 | 139 | 11.3 | 19.3 | 0.00 | 0.00 | 0.00 | 14 | 1011.8 |
| 20260906094524 | 36 | 155 | 9.7 | 16.1 | 0.00 | 0.00 | 0.00 | 15 | 1012.0 |
| 20260906093029 | 36 | 89 | 8.0 | 11.3 | 0.00 | 0.00 | 0.00 | 14 | 1012.1 |
| 20260906091535 | 36 | 36 | 3.2 | 14.5 | 0.00 | 0.00 | 0.00 | 14 | 1012.4 |
| 20260906090037 | 36 | 119 | 4.8 | 16.1 | 0.00 | 0.00 | 0.00 | 14 | 1012.6 |
| 20260906084527 | 36 | 266 | 1.6 | 9.7 | 0.00 | 0.00 | 0.00 | 15 | 1012.7 |
| 20260906083027 | 36 | 160 | 4.8 | 12.9 | 0.00 | 0.00 | 0.00 | 16 | 1012.8 |
| 20260906081539 | 35 | 87 | 6.4 | 12.9 | 0.00 | 0.00 | 0.00 | 17 | 1012.9 |
| 20260906080035 | 35 | 341 | 6.4 | 14.5 | 0.00 | 0.00 | 0.00 | 17 | 1013.1 |
| 20260906074534 | 34 | 55 | 6.4 | 12.9 | 0.00 | 0.00 | 0.00 | 18 | 1013.3 |
| 20260906073028 | 34 | 105 | 6.4 | 14.5 | 0.00 | 0.00 | 0.00 | 18 | 1013.4 |
| 20260906071531 | 33 | 43 | 6.4 | 12.9 | 0.00 | 0.00 | 0.00 | 19 | 1013.5 |
| 20260906070031 | 33 | 33 | 6.4 | 12.9 | 0.00 | 0.00 | 0.00 | 19 | 1013.6 |
| 20260906064531 | 32 | 343 | 3.2 | 14.5 | 0.00 | 0.00 | 0.00 | 19 | 1013.7 |
| 20260906063032 | 32 | 5 | 4.8 | 16.1 | 0.00 | 0.00 | 0.00 | 19 | 1013.9 |
| 20260906061530 | 32 | 53 | 4.8 | 11.3 | 0.00 | 0.00 | 0.00 | 20 | 1013.9 |
| 20260906060036 | 31 | 85 | 8.0 | 16.1 | 0.00 | 0.00 | 0.00 | 21 | 1013.8 |
| 20260906054532 | 31 | 74 | 8.0 | 14.5 | 0.00 | 0.00 | 0.00 | 22 | 1013.7 |
| 20260906053035 | 30 | 93 | 4.8 | 8.0 | 0.00 | 0.00 | 0.00 | 24 | 1013.9 |
| 20260906051535 | 30 | 126 | 3.2 | 9.7 | 0.00 | 0.00 | 0.00 | 25 | 1013.7 |
| 20260906050032 | 29 | 98 | 4.8 | 9.7 | 0.00 | 0.00 | 0.00 | 27 | 1013.7 |
| 20260906044509 | 28 | 92 | 3.2 | 6.4 | 0.00 | 0.00 | 0.00 | 29 | 1013.7 |
| 20260906043015 | 28 | 204 | 0.0 | 3.2 | 0.00 | 0.00 | 0.00 | 29 | 1013.7 |
| 20260906041530 | 27 | 204 | 1.6 | 4.8 | 0.00 | 0.00 | 0.00 | 29 | 1013.7 |
| 20260906040035 | 26 | 257 | 0.0 | 4.8 | 0.00 | 0.00 | 0.00 | 30 | 1013.6 |
| 20260906034534 | 26 | 235 | 1.6 | 6.4 | 0.00 | 0.00 | 0.00 | 31 | 1013.6 |
| 20260906033014 | 25 | 236 | 1.6 | 4.8 | 0.00 | 0.00 | 0.00 | 31 | 1013.3 |
| 20260906031532 | 25 | 236 | 1.6 | 6.4 | 0.00 | 0.00 | 0.00 | 31 | 1013.2 |
| 20260906030028 | 25 | 232 | 0.0 | 4.8 | 0.00 | 0.00 | 0.00 | 31 | 1013.0 |
| 20260906024537 | 25 | 217 | 1.6 | 4.8 | 0.00 | 0.00 | 0.00 | 31 | 1012.8 |
| 20260906023012 | 25 | 111 | 0.0 | 3.2 | 0.00 | 0.00 | 0.00 | 31 | 1012.7 |
| 20260906021522 | 25 | 102 | 0.0 | 3.2 | 0.00 | 0.00 | 0.00 | 31 | 1012.4 |
| 20260906020030 | 25 | 173 | 0.0 | 3.2 | 0.00 | 0.00 | 0.00 | 30 | 1012.5 |
| 20260906014532 | 26 | 173 | 0.0 | 3.2 | 0.00 | 0.00 | 0.00 | 29 | 1012.4 |
| 20260906013031 | 26 | 173 | 0.0 | 3.2 | 0.00 | 0.00 | 0.00 | 30 | 1012.4 |
| 20260906011517 | 25 | 229 | 0.0 | 6.4 | 0.00 | 0.00 | 0.00 | 29 | 1012.4 |
| 20260906010023 | 26 | 206 | 3.2 | 6.4 | 0.00 | 0.00 | 0.00 | 29 | 1012.2 |
| 20260906004530 | 26 | 228 | 0.0 | 4.8 | 0.00 | 0.00 | 0.00 | 29 | 1012.2 |
| 20260906003031 | 26 | 215 | 0.0 | 6.4 | 0.00 | 0.00 | 0.00 | 28 | 1012.2 |
| 20260906001542 | 26 | 244 | 3.2 | 6.4 | 0.00 | 0.00 | 0.00 | 29 | 1012.2 |
| 20260906000020 | 26 | 228 | 3.2 | 6.4 | 0.00 | 0.00 | 0.00 | 28 | 1012.2 |
| 20260905234524 | 26 | 211 | 0.0 | 6.4 | 0.00 | 0.00 | 0.00 | 28 | 1012.3 |
| 20260905233028 | 26 | 223 | 1.6 | 4.8 | 0.00 | 0.00 | 0.00 | 28 | 1012.3 |
| 20260905231537 | 26 | 207 | 3.2 | 6.4 | 0.00 | 0.00 | 0.00 | 29 | 1012.2 |
| 20260905230016 | 27 | 209 | 1.6 | 4.8 | 0.00 | 0.00 | 0.00 | 28 | 1012.4 |
| 20260905224524 | 27 | 227 | 0.0 | 4.8 | 0.00 | 0.00 | 0.00 | 27 | 1012.3 |
| 20260905223005 | 27 | 225 | 0.0 | 3.2 | 0.00 | 0.00 | 0.00 | 27 | 1012.4 |
| 20260905221508 | 27 | 255 | 1.6 | 3.2 | 0.00 | 0.00 | 0.00 | 27 | 1012.6 |
| 20260905220016 | 28 | 249 | 1.6 | 3.2 | 0.00 | 0.00 | 0.00 | 25 | 1012.7 |
| 20260905214520 | 28 | 260 | 0.0 | 4.8 | 0.00 | 0.00 | 0.00 | 24 | 1012.8 |
| 20260905213026 | 27 | 252 | 3.2 | 4.8 | 0.00 | 0.00 | 0.00 | 23 | 1012.8 |
| 20260905211507 | 27 | 227 | 0.0 | 6.4 | 0.00 | 0.00 | 0.00 | 24 | 1012.8 |
| 20260905210011 | 28 | 224 | 1.6 | 4.8 | 0.00 | 0.00 | 0.00 | 23 | 1012.9 |
| 20260905204518 | 28 | 229 | 1.6 | 8.0 | 0.00 | 0.00 | 0.00 | 24 | 1012.9 |
| 20260905203027 | 28 | 189 | 1.6 | 6.4 | 0.00 | 0.00 | 0.00 | 23 | 1013.0 |
| 20260905201530 | 29 | 147 | 0.0 | 4.8 | 0.00 | 0.00 | 0.00 | 23 | 1013.1 |
| 20260905200010 | 29 | 267 | 1.6 | 6.4 | 0.00 | 0.00 | 0.00 | 23 | 1013.1 |
| 20260905194515 | 29 | 192 | 1.6 | 6.4 | 0.00 | 0.00 | 0.00 | 23 | 1013.1 |
| 20260905193024 | 30 | 242 | 1.6 | 6.4 | 0.00 | 0.00 | 0.00 | 22 | 1013.1 |
| 20260905191530 | 30 | 217 | 3.2 | 8.0 | 0.00 | 0.00 | 0.00 | 23 | 1013.0 |
| 20260905190041 | 30 | 159 | 0.0 | 1.6 | 0.00 | 0.00 | 0.00 | 20 | 1012.9 |
| 20260905184512 | 31 | 159 | 0.0 | 1.6 | 0.00 | 0.00 | 0.00 | 21 | 1013.0 |
| 20260905183019 | 31 | 169 | 1.6 | 6.4 | 0.00 | 0.00 | 0.00 | 19 | 1013.0 |
| 20260905181528 | 31 | 273 | 3.2 | 9.7 | 0.00 | 0.00 | 0.00 | 20 | 1013.1 |
| 20260905180047 | 32 | 181 | 3.2 | 9.7 | 0.00 | 0.00 | 0.00 | 18 | 1013.2 |
| 20260905174533 | 33 | 285 | 6.4 | 12.9 | 0.00 | 0.00 | 0.00 | 16 | 1013.1 |
| 20260905173016 | 32 | 281 | 11.3 | 16.1 | 0.00 | 0.00 | 0.00 | 17 | 1012.9 |
| 20260905171528 | 33 | 200 | 4.8 | 8.0 | 0.00 | 0.00 | 0.00 | 19 | 1012.9 |
| 20260905170027 | 34 | 240 | 0.0 | 3.2 | 0.00 | 0.00 | 0.00 | 18 | 1012.8 |
| 20260905164530 | 34 | 314 | 0.0 | 6.4 | 0.00 | 0.00 | 0.00 | 17 | 1012.6 |
| 20260905163013 | 34 | 277 | 0.0 | 3.2 | 0.00 | 0.00 | 0.00 | 17 | 1012.4 |
| 20260905161524 | 35 | 256 | 3.2 | 11.3 | 0.00 | 0.00 | 0.00 | 16 | 1012.3 |
| 20260905160045 | 35 | 257 | 1.6 | 4.8 | 0.00 | 0.00 | 0.00 | 17 | 1012.1 |
| 20260905154535 | 35 | 200 | 3.2 | 8.0 | 0.00 | 0.00 | 0.00 | 17 | 1011.8 |
| 20260905153036 | 35 | 200 | 3.2 | 11.3 | 0.00 | 0.00 | 0.00 | 16 | 1011.6 |
| 20260905151518 | 36 | 185 | 4.8 | 11.3 | 0.00 | 0.00 | 0.00 | 16 | 1011.6 |
| 20260905150023 | 36 | 180 | 4.8 | 14.5 | 0.00 | 0.00 | 0.00 | 16 | 1011.6 |
| 20260905144530 | 36 | 223 | 8.0 | 14.5 | 0.00 | 0.00 | 0.00 | 15 | 1011.3 |
| 20260905143032 | 37 | 134 | 4.8 | 12.9 | 0.00 | 0.00 | 0.00 | 14 | 1011.3 |
| 20260905141535 | 37 | 138 | 8.0 | 16.1 | 0.00 | 0.00 | 0.00 | 14 | 1011.1 |